Location: Boitzum
(52.1496°N, 9.6943°E)
Time: 08:38:49
(UTC+00:00)

Cosmos 2263 Rocket - Pass Details

Date: 13 January 2026
Orbit: 821 x 849 km, 71.0° (Epoch: 19 February)

Event Time Altitude Azimuth Distance (km) Brightness Sun altitude
Exits shadow 05:26:45 12° 335° (NNW) 2,320 4.1 -17.3°
Maximum altitude 05:27:46 13° 346° (NNW) 2,287 4.2 -17.1°
Drops below altitude 10° 05:30:15 10° 12° (NNE) 2,483 4.6 -16.7°
Sets 05:34:21 0° 40° (NE) 3,423 5.7 -16.1°
